When you browse on this site, cookies collect data to enhance your experience and personalize the content and advertising you see.
Visit our Privacy Policy to learn more. By continuing to use the site, you agree to this use of cookies and data.
  • In Romania
  • List of Countries
  • For 7 days
  • Water Temperature
  • Satellite Maps
  • Weather Map
  • Weather Widgets
  • user-avatar
    Login

    Hourly Weather Rawa Mazowiecka

    Today, 10 December, Monday

    Time Temperature Precipitation Wind Pressure Humidity
    00:00 +3°C° 0.2 mm 5 mps 735 mmHg 85%
    01:00 +3°C° 0.2 mm 5 mps 735 mmHg 85%
    02:00 +3°C° 0.4 mm 5 mps 735 mmHg 84%
    03:00 +3°C° 0.4 mm 6 mps 735 mmHg 84%
    04:00 +3°C° 0.4 mm 6 mps 735 mmHg 83%
    05:00 +3°C° 0.5 mm 7 mps 735 mmHg 81%
    06:00 +3°C° 0.5 mm 7 mps 736 mmHg 79%
    07:00 +2°C° 0.5 mm 8 mps 736 mmHg 77%
    08:00 +2°C° 0.1 mm 8 mps 737 mmHg 76%
    09:00 +2°C° 0.1 mm 8 mps 738 mmHg 74%
    10:00 +1°C° 0.1 mm 8 mps 738 mmHg 72%
    11:00 +1°C° 0 mm 8 mps 739 mmHg 70%
    12:00 +1°C° 0 mm 8 mps 739 mmHg 69%
    13:00 +2°C° 0 mm 7 mps 739 mmHg 67%
    14:00 +2°C° 0.1 mm 7 mps 740 mmHg 68%
    15:00 +2°C° 0.1 mm 6 mps 740 mmHg 70%
    16:00 +2°C° 0.1 mm 5 mps 741 mmHg 71%
    17:00 +1°C° 0 mm 5 mps 741 mmHg 72%
    18:00 +1°C° 0 mm 5 mps 741 mmHg 74%
    19:00 0°C° 0 mm 5 mps 741 mmHg 76%
    20:00 0°C° 0 mm 5 mps 741 mmHg 77%
    21:00 0°C° 0 mm 5 mps 741 mmHg 78%
    22:00 -1°C° 0 mm 5 mps 742 mmHg 80%
    23:00 -1°C° 0 mm 5 mps 742 mmHg 81%

    Tomorrow, 11 December, Tuesday

    Time Temperature Precipitation Wind Pressure Humidity
    00:00 -1°C° 0 mm 4 mps 742 mmHg 83%
    01:00 -1°C° 0 mm 4 mps 742 mmHg 85%
    02:00 -1°C° 0 mm 4 mps 742 mmHg 86%
    03:00 -1°C° 0 mm 4 mps 742 mmHg 87%
    04:00 -1°C° 0 mm 4 mps 742 mmHg 89%
    05:00 -1°C° 0 mm 4 mps 742 mmHg 89%
    06:00 0°C° 0 mm 3 mps 742 mmHg 89%
    07:00 0°C° 0 mm 3 mps 742 mmHg 89%
    08:00 0°C° 0.1 mm 3 mps 742 mmHg 87%
    09:00 +1°C° 0.1 mm 3 mps 742 mmHg 86%
    10:00 0°C° 0.1 mm 4 mps 742 mmHg 84%
    11:00 +2°C° 0.1 mm 3 mps 742 mmHg 84%
    12:00 +2°C° 0.1 mm 3 mps 742 mmHg 83%
    13:00 +2°C° 0.1 mm 3 mps 742 mmHg 83%
    14:00 +3°C° 0.1 mm 2 mps 743 mmHg 85%
    15:00 +2°C° 0.1 mm 2 mps 743 mmHg 87%
    16:00 +2°C° 0.1 mm 2 mps 743 mmHg 88%
    17:00 +2°C° 0.1 mm 2 mps 744 mmHg 89%
    18:00 +2°C° 0.1 mm 2 mps 744 mmHg 90%
    19:00 +2°C° 0.1 mm 2 mps 745 mmHg 90%
    20:00 +1°C° 0 mm 2 mps 745 mmHg 91%
    21:00 +1°C° 0 mm 2 mps 745 mmHg 92%
    22:00 +1°C° 0 mm 2 mps 746 mmHg 92%
    23:00 +1°C° 0 mm 2 mps 746 mmHg 92%

    Day after tomorrow, 12 December, Wednesday

    Time Temperature Precipitation Wind Pressure Humidity
    00:00 -1°C° 0 mm 2 mps 746 mmHg 93%
    01:00 -1°C° 0 mm 2 mps 747 mmHg 93%
    02:00 -1°C° 0 mm 2 mps 747 mmHg 93%
    03:00 -1°C° 0 mm 2 mps 747 mmHg 93%
    04:00 -1°C° 0 mm 2 mps 747 mmHg 94%
    05:00 -1°C° 0 mm 2 mps 748 mmHg 94%
    06:00 -2°C° 0 mm 2 mps 748 mmHg 94%
    07:00 -2°C° 0 mm 2 mps 749 mmHg 94%
    08:00 -1°C° 0 mm 2 mps 749 mmHg 92%
    09:00 -1°C° 0 mm 2 mps 750 mmHg 90%
    10:00 -1°C° 0 mm 2 mps 750 mmHg 87%
    11:00 +1°C° 0 mm 2 mps 750 mmHg 85%
    12:00 +1°C° 0 mm 2 mps 750 mmHg 83%
    13:00 +1°C° 0 mm 2 mps 750 mmHg 81%
    14:00 +1°C° 0 mm 2 mps 750 mmHg 85%
    15:00 -1°C° 0 mm 2 mps 751 mmHg 88%
    16:00 -2°C° 0 mm 2 mps 751 mmHg 91%
    17:00 -2°C° 0 mm 2 mps 751 mmHg 91%
    18:00 -2°C° 0 mm 2 mps 751 mmHg 92%
    19:00 0°C° 0 mm 1 mps 751 mmHg 93%
    20:00 0°C° 0 mm 1 mps 751 mmHg 93%
    21:00 0°C° 0 mm 1 mps 751 mmHg 93%
    22:00 0°C° 0 mm 1 mps 752 mmHg 93%
    23:00 -2°C° 0 mm 2 mps 752 mmHg 93%

    13 December, Thursday

    Time Temperature Precipitation Wind Pressure Humidity
    00:00 -2°C° 0 mm 2 mps 752 mmHg 93%
    01:00 -2°C° 0 mm 2 mps 752 mmHg 93%
    02:00 -2°C° 0 mm 2 mps 752 mmHg 93%
    03:00 -2°C° 0 mm 2 mps 752 mmHg 94%
    04:00 -2°C° 0 mm 2 mps 751 mmHg 94%
    05:00 -2°C° 0 mm 2 mps 751 mmHg 94%
    06:00 -2°C° 0 mm 2 mps 751 mmHg 93%
    07:00 -2°C° 0 mm 2 mps 751 mmHg 93%
    08:00 -1°C° 0.1 mm 2 mps 751 mmHg 92%
    09:00 -1°C° 0.1 mm 2 mps 751 mmHg 90%
    10:00 -1°C° 0.1 mm 2 mps 751 mmHg 88%
    11:00 -1°C° 0 mm 2 mps 751 mmHg 87%
    12:00 -1°C° 0 mm 2 mps 751 mmHg 86%
    13:00 +1°C° 0 mm 2 mps 751 mmHg 84%
    14:00 -1°C° 0 mm 2 mps 751 mmHg 85%
    15:00 -1°C° 0 mm 2 mps 750 mmHg 87%
    16:00 -1°C° 0 mm 2 mps 750 mmHg 88%
    17:00 -1°C° 0 mm 2 mps 750 mmHg 89%
    18:00 0°C° 0 mm 1 mps 750 mmHg 90%
    19:00 0°C° 0 mm 1 mps 750 mmHg 91%
    20:00 0°C° 0 mm 1 mps 750 mmHg 91%
    21:00 0°C° 0 mm 1 mps 750 mmHg 91%
    22:00 0°C° 0 mm 1 mps 751 mmHg 91%
    23:00 0°C° 0 mm 1 mps 751 mmHg 91%

    14 December, Friday

    Time Temperature Precipitation Wind Pressure Humidity
    00:00 -1°C° 0 mm 1 mps 751 mmHg 91%
    01:00 -1°C° 0 mm 1 mps 751 mmHg 91%
    02:00 -1°C° 0 mm 1 mps 751 mmHg 91%
    03:00 -1°C° 0 mm 1 mps 751 mmHg 91%
    04:00 -1°C° 0 mm 1 mps 750 mmHg 91%
    05:00 -1°C° 0 mm 1 mps 751 mmHg 91%
    06:00 -1°C° 0 mm 1 mps 751 mmHg 91%
    07:00 -1°C° 0 mm 1 mps 751 mmHg 92%
    08:00 -1°C° 0 mm 1 mps 751 mmHg 90%
    09:00 0°C° 0 mm 1 mps 751 mmHg 88%
    10:00 0°C° 0 mm 1 mps 752 mmHg 87%
    11:00 -1°C° 0 mm 2 mps 751 mmHg 85%
    12:00 -1°C° 0 mm 2 mps 751 mmHg 84%
    13:00 -1°C° 0 mm 2 mps 751 mmHg 83%
    14:00 -1°C° 0 mm 2 mps 752 mmHg 85%
    15:00 -1°C° 0 mm 2 mps 752 mmHg 87%
    16:00 -1°C° 0 mm 2 mps 752 mmHg 89%
    17:00 -1°C° 0 mm 2 mps 752 mmHg 89%
    18:00 -1°C° 0 mm 2 mps 752 mmHg 89%
    19:00 -1°C° 0 mm 3 mps 752 mmHg 89%
    20:00 -2°C° 0 mm 3 mps 752 mmHg 89%
    21:00 -2°C° 0 mm 3 mps 752 mmHg 89%
    22:00 -2°C° 0 mm 2 mps 752 mmHg 89%
    23:00 -2°C° 0 mm 2 mps 752 mmHg 90%

    15 December, Saturday

    Time Temperature Precipitation Wind Pressure Humidity
    00:00 -3°C° 0 mm 2 mps 752 mmHg 90%
    01:00 -3°C° 0 mm 2 mps 752 mmHg 91%
    02:00 -3°C° 0 mm 2 mps 752 mmHg 90%
    03:00 -2°C° 0 mm 2 mps 752 mmHg 90%
    04:00 -2°C° 0 mm 3 mps 752 mmHg 89%
    05:00 -2°C° 0 mm 3 mps 752 mmHg 89%
    06:00 -2°C° 0 mm 3 mps 753 mmHg 90%
    07:00 -2°C° 0 mm 3 mps 753 mmHg 90%
    08:00 -2°C° 0 mm 3 mps 753 mmHg 88%
    09:00 -2°C° 0 mm 3 mps 753 mmHg 86%
    10:00 -2°C° 0 mm 3 mps 754 mmHg 84%
    11:00 -1°C° 0.1 mm 3 mps 754 mmHg 83%
    12:00 -1°C° 0.1 mm 3 mps 754 mmHg 82%
    13:00 -1°C° 0.1 mm 3 mps 753 mmHg 80%
    14:00 -1°C° 0.1 mm 3 mps 754 mmHg 82%
    15:00 -2°C° 0.1 mm 3 mps 754 mmHg 85%
    16:00 -2°C° 0.1 mm 3 mps 754 mmHg 87%
    17:00 -2°C° 0 mm 3 mps 754 mmHg 88%
    18:00 -2°C° 0 mm 3 mps 754 mmHg 89%
    19:00 -4°C° 0 mm 3 mps 754 mmHg 91%
    20:00 -4°C° 0 mm 3 mps 754 mmHg 91%
    21:00 -3°C° 0 mm 2 mps 754 mmHg 92%
    22:00 -3°C° 0 mm 2 mps 754 mmHg 93%
    23:00 -3°C° 0 mm 2 mps 753 mmHg 93%
    Show more